[Date Prev][Date Next][Thread Prev][Thread Next] - [Date Index][Thread Index][Author Index]
2 Line ISS Keps 11-24
- Subject: [sarex] 2 Line ISS Keps 11-24
- From: "Dave Larsen Ph.D." <doc@xxxxxxxxxxx>
- Date: Sun, 24 Nov 2002 02:53:28 -0800
ISS
1 25544U 98067A 02328.15870693 .00032323 00000-0 40148-3 0 4105
2 25544 51.6383 329.7485 0013484 170.5159 276.9031 15.59590980228926
----
Via the sarex mailing list at AMSAT.ORG courtesy of AMSAT-NA.
To unsubscribe, send "unsubscribe sarex" to Majordomo@amsat.org
AMSAT Home